sporza.be alexa rank chart, sporza.be alexa rank daily changes

sporza.be alexa rank chart, sporza.be alexa rank daily changes

sporza.be
Actual rank:
10 438

RANK HISTORY

Date Rank Diff
2018/01/22 10 438 -65
2018/01/21 10 503 -16
2018/01/19 10 519 +197
2018/01/18 10 322 +96
2018/01/17 10 226 -113
2018/01/16 10 339 -96
2018/01/15 10 435 -61
2018/01/14 10 496 +89
2018/01/13 10 407 +105
2018/01/12 10 302 +130
2018/01/11 10 172 +83
2018/01/10 10 089 +10
2018/01/09 10 079 -31
2018/01/08 10 110 +15
2018/01/07 10 095 +7
2018/01/06 10 088 -110
2018/01/05 10 198 +146
2018/01/04 10 052 +63
2018/01/03 9 989 -1
2018/01/02 9 990 +50
2018/01/01 9 940 -46
2017/12/31 9 986 -36
2017/12/30 10 022 -118
2017/12/29 10 140 -49
2017/12/28 10 189 +88
2017/12/27 10 101 +118
2017/12/26 9 983 -1
2017/12/25 9 984 -131
2017/12/24 10 115 -36
2017/12/23 10 151 -35
2017/12/22 10 186 +25
2017/12/21 10 161 +257
2017/12/20 9 904 +114
2017/12/19 9 790 -124
2017/12/18 9 914 -122
2017/12/17 10 036 +79
2017/12/16 9 957 +109
2017/12/15 9 848 +40
2017/12/14 9 808 +91
2017/12/13 9 717 +42
2017/12/12 9 675 +26
2017/12/11 9 649 -2
2017/12/10 9 651 +20
2017/12/09 9 631 -12
2017/12/08 9 643 -60
2017/12/07 9 703 +176
2017/12/06 9 527 +23
2017/12/05 9 504 -38
2017/12/04 9 542 -45
2017/12/03 9 587 -26
2017/12/02 9 613 -110
2017/12/01 9 723 +58
2017/11/30 9 665 +134
2017/11/29 9 531 +43
2017/11/28 9 488 -204
2017/11/27 9 692 +21
2017/11/26 9 671 -56
2017/11/25 9 727 +44
2017/11/24 9 683 +121
2017/11/23 9 562

WIDGET FOR YOUR SITE

DOMAINS WITH THE NEAREST RANK

Domain Rank
betterment.com 10 433
navalny.com 10 434
beyondmenu.com 10 435
pixroute.com 10 436
speedomizer.com 10 437
sporza.be 10 438
franceculture.fr 10 439
mo.gov 10 440
tportal.hr 10 441
52fuqing.com 10 442
naver.net 10 443

DOMAINS WITH THE NEAREST RANK BY TLD .be

Domain Rank
ugent.be 7 949
ebay.be 9 495
pzy.be 9 549
dhnet.be 10 021
immoweb.be 10 343
sporza.be 10 438
ing.be 10 537
proximus.be 11 079
belgium.be 11 294
watchseries-online.be 11 512
zalando.be 11 632